Denison, IA

8:19 PM CDT on April 19, 2018 (GMT -0500)
Denison Municipal

Weather History for KDNS - February, 2013

Change the Weather History Date:

Thursday, February 7, 2013

  Actual Average Record
Temperature  
Mean Temperature 32 °F -  
Max Temperature 37 °F 32 °F 53 °F (1999)
Min Temperature 26 °F 17 °F -11 °F (2014)
Degree Days  
Heating Degree Days 34    
Moisture  
Dew Point 28 °F    
Average Humidity 86    
Maximum Humidity 100    
Minimum Humidity 75    
Precipitation  
Precipitation 0.00 in - - ()
Sea Level Pressure  
Sea Level Pressure 30.05 in    
Wind  
Wind Speed 9 mph (North)    
Max Wind Speed 22 mph    
Max Gust Speed 26 mph    
Visibility 8 miles    
Events      
Averages and records for this station are not official NWS values.
T = Trace of Precipitation, MM = Missing Value Source: NWS Daily Summary

Daily Weather History Graph

Daily Weather History Graph

Search for Another Location

Airport or City:

Astronomy

Feb. 07, 2013 Rise Set
Actual Time 7:27 AM CST 5:44 PM CST
Civil Twilight 6:58 AM CST 6:13 PM CST
Nautical Twilight 6:25 AM CST 6:46 PM CST
Astronomical Twilight 5:52 AM CST 7:19 PM CST
Moon 5:09 AM CST (2/7) 3:08 PM CST (2/7)
Length of Visible Light 11h 15m
Length of Day
10h 17m
Waning Crescent, 9% of the Moon is Illuminated
Feb 7
Waning Crescent
Feb 10
New
Feb 17
First Quarter
Feb 25
Full
Mar 4
Last Quarter

Hourly Weather History & Observations

Time (CST) Temp. Windchill Dew Point Humidity Pressure Visibility Wind Dir Wind Speed Gust Speed Precip Events Conditions
12:35 AM 37.4 °F 33.8 °F 33.8 °F 87% 29.90 in 10.0 mi ENE 4.6 mph - N/A   Overcast
12:55 AM 37.4 °F 32.8 °F 33.8 °F 87% 29.89 in 10.0 mi ESE 5.8 mph - N/A   Overcast
1:15 AM 37.4 °F 32.8 °F 33.8 °F 87% 29.89 in 10.0 mi ESE 5.8 mph - N/A   Overcast
1:35 AM 35.6 °F 31.7 °F 33.8 °F 93% 29.89 in 10.0 mi NNE 4.6 mph - N/A   Mostly Cloudy
1:55 AM 37.4 °F - 33.8 °F 87% 29.89 in 10.0 mi Calm Calm - N/A   Mostly Cloudy
2:15 AM 37.4 °F - 33.8 °F 87% 29.89 in 10.0 mi Calm Calm - N/A   Overcast
2:35 AM 37.4 °F - 33.8 °F 87% 29.89 in 10.0 mi Calm Calm - N/A   Overcast
2:55 AM 37.4 °F - 33.8 °F 87% 29.89 in 10.0 mi Calm Calm - N/A   Overcast
3:15 AM 35.6 °F - 33.8 °F 93% 29.90 in 10.0 mi Calm Calm - N/A   Overcast
3:55 AM 35.6 °F - 33.8 °F 93% 29.90 in 10.0 mi Calm Calm - N/A   Overcast
4:15 AM 37.4 °F 34.9 °F 33.8 °F 87% 29.90 in 10.0 mi North 3.5 mph - N/A   Overcast
4:35 AM 35.6 °F 30.7 °F 33.8 °F 93% 29.90 in 10.0 mi North 5.8 mph - N/A   Overcast
4:55 AM 35.6 °F 29.2 °F 33.8 °F 93% 29.91 in 10.0 mi North 8.1 mph - N/A   Overcast
5:15 AM 35.6 °F 29.2 °F 33.8 °F 93% 29.91 in 10.0 mi North 8.1 mph - N/A   Overcast
5:35 AM 35.6 °F 28.6 °F 33.8 °F 93% 29.92 in 10.0 mi NNE 9.2 mph - N/A   Overcast
5:55 AM 35.6 °F 28.6 °F 32.0 °F 87% 29.93 in 10.0 mi NNE 9.2 mph - N/A   Overcast
6:15 AM 35.6 °F 28.6 °F 32.0 °F 87% 29.94 in 10.0 mi NNE 9.2 mph - N/A   Overcast
6:35 AM 33.8 °F 24.8 °F 32.0 °F 93% 29.95 in 10.0 mi North 12.7 mph - N/A   Mostly Cloudy
6:55 AM 33.8 °F 24.8 °F 32.0 °F 93% 29.96 in 10.0 mi North 12.7 mph - N/A   Overcast
7:15 AM 32.0 °F 22.5 °F 30.2 °F 93% 29.98 in 6.0 mi North 12.7 mph 20.7 mph N/A   Overcast
7:35 AM 32.0 °F 23.6 °F 30.2 °F 93% 29.99 in 4.0 mi North 10.4 mph - N/A   Overcast
7:55 AM 32.0 °F 23.0 °F 30.2 °F 93% 29.99 in 2.5 mi NNE 11.5 mph 20.7 mph N/A   Overcast
8:15 AM 30.2 °F 19.3 °F 30.2 °F 100% 29.99 in 2.0 mi North 15.0 mph - N/A   Overcast
8:35 AM 30.2 °F 19.3 °F 28.4 °F 93% 30.01 in 2.5 mi North 15.0 mph - N/A   Overcast
8:55 AM 30.2 °F 20.2 °F 28.4 °F 93% 30.02 in 2.0 mi North 12.7 mph - N/A   Overcast
9:15 AM 30.2 °F 19.3 °F 28.4 °F 93% 30.03 in 2.5 mi North 15.0 mph - N/A   Overcast
9:35 AM 30.2 °F 19.8 °F 28.4 °F 93% 30.04 in 3.0 mi North 13.8 mph - N/A   Overcast
9:55 AM 30.2 °F 19.3 °F 28.4 °F 93% 30.04 in 3.0 mi North 15.0 mph 23.0 mph N/A   Overcast
10:15 AM 32.0 °F 21.6 °F 28.4 °F 87% 30.04 in 3.0 mi NNW 15.0 mph - N/A   Overcast
10:35 AM 30.2 °F 18.9 °F 28.4 °F 93% 30.05 in 3.0 mi NNW 16.1 mph - N/A   Overcast
10:55 AM 32.0 °F 21.6 °F 28.4 °F 87% 30.05 in 4.0 mi North 15.0 mph 21.9 mph N/A   Overcast
11:15 AM 32.0 °F 20.1 °F 28.4 °F 87% 30.06 in 4.0 mi NNW 19.6 mph - N/A   Haze
11:35 AM 32.0 °F 20.5 °F 28.4 °F 87% 30.07 in 4.0 mi NNW 18.4 mph 25.3 mph N/A   Haze
11:55 AM 32.0 °F 21.2 °F 28.4 °F 87% 30.06 in 4.0 mi NNW 16.1 mph 23.0 mph N/A   Haze
12:15 PM 32.0 °F 21.2 °F 28.4 °F 87% 30.06 in 5.0 mi NNW 16.1 mph 23.0 mph N/A   Haze
12:35 PM 33.8 °F 23.2 °F 28.4 °F 81% 30.05 in 6.0 mi North 17.3 mph - N/A   Haze
12:55 PM 33.8 °F 23.2 °F 28.4 °F 81% 30.05 in 7.0 mi NW 17.3 mph - N/A   Overcast
1:15 PM 32.0 °F 21.2 °F 26.6 °F 80% 30.06 in 8.0 mi NNW 16.1 mph 21.9 mph N/A   Overcast
1:35 PM 32.0 °F 20.8 °F 26.6 °F 80% 30.06 in 8.0 mi NNW 17.3 mph 23.0 mph N/A   Overcast
1:55 PM 32.0 °F 20.5 °F 26.6 °F 80% 30.06 in 6.0 mi NNW 18.4 mph 24.2 mph N/A   Haze
2:15 PM 32.0 °F 20.8 °F 26.6 °F 80% 30.07 in 8.0 mi NNW 17.3 mph - N/A   Overcast
2:35 PM 32.0 °F 20.8 °F 26.6 °F 80% 30.07 in 8.0 mi North 17.3 mph 24.2 mph N/A   Overcast
2:55 PM 32.0 °F 20.8 °F 26.6 °F 80% 30.07 in 9.0 mi North 17.3 mph - N/A   Overcast
3:15 PM 32.0 °F 20.5 °F 24.8 °F 75% 30.08 in 10.0 mi North 18.4 mph - N/A   Overcast
3:35 PM 32.0 °F 21.6 °F 24.8 °F 75% 30.09 in 10.0 mi North 15.0 mph 21.9 mph N/A   Overcast
3:55 PM 32.0 °F 20.8 °F 24.8 °F 75% 30.09 in 10.0 mi North 17.3 mph 23.0 mph N/A   Overcast
4:15 PM 30.2 °F 19.3 °F 24.8 °F 80% 30.09 in 10.0 mi North 15.0 mph 21.9 mph N/A   Overcast
4:35 PM 30.2 °F 19.3 °F 24.8 °F 80% 30.11 in 10.0 mi North 15.0 mph 23.0 mph N/A   Overcast
4:55 PM 30.2 °F 17.1 °F 24.8 °F 80% 30.12 in 10.0 mi North 21.9 mph - N/A   Overcast
5:15 PM 30.2 °F 20.2 °F 24.8 °F 80% 30.12 in 10.0 mi North 12.7 mph 24.2 mph N/A   Overcast
5:35 PM 30.2 °F 19.3 °F 24.8 °F 80% 30.13 in 10.0 mi North 15.0 mph 21.9 mph N/A   Overcast
5:55 PM 30.2 °F 18.1 °F 23.0 °F 75% 30.14 in 10.0 mi North 18.4 mph 26.5 mph N/A   Overcast
6:15 PM 30.2 °F 18.5 °F 23.0 °F 75% 30.15 in 10.0 mi North 17.3 mph 24.2 mph N/A   Overcast
6:35 PM 30.2 °F 18.9 °F 24.8 °F 80% 30.16 in 10.0 mi North 16.1 mph - N/A   Overcast
6:55 PM 30.2 °F 20.2 °F 24.8 °F 80% 30.16 in 10.0 mi North 12.7 mph - N/A   Overcast
7:15 PM 30.2 °F 21.9 °F 24.8 °F 80% 30.16 in 10.0 mi North 9.2 mph 16.1 mph N/A   Overcast
7:35 PM 30.2 °F 21.3 °F 24.8 °F 80% 30.17 in 10.0 mi North 10.4 mph 18.4 mph N/A   Overcast
7:55 PM 28.4 °F 19.1 °F 23.0 °F 80% 30.18 in 10.0 mi North 10.4 mph 18.4 mph N/A   Overcast
8:15 PM 28.4 °F 19.1 °F 23.0 °F 80% 30.19 in 10.0 mi North 10.4 mph - N/A   Overcast
8:35 PM 28.4 °F 16.6 °F 23.0 °F 80% 30.19 in 10.0 mi North 16.1 mph - N/A   Overcast
8:55 PM 26.6 °F 15.7 °F 23.0 °F 86% 30.20 in 10.0 mi North 12.7 mph - N/A   Overcast
9:15 PM 26.6 °F 15.7 °F 23.0 °F 86% 30.21 in 9.0 mi North 12.7 mph 18.4 mph N/A   Overcast
9:35 PM 26.6 °F 15.7 °F 23.0 °F 86% 30.22 in 10.0 mi North 12.7 mph - N/A   Overcast
9:55 PM 26.6 °F 17.5 °F 23.0 °F 86% 30.22 in 10.0 mi North 9.2 mph - N/A   Overcast
10:15 PM 26.6 °F 15.2 °F 23.0 °F 86% 30.22 in 10.0 mi NNE 13.8 mph 19.6 mph N/A   Overcast
10:35 PM 26.6 °F 15.7 °F 23.0 °F 86% 30.23 in 10.0 mi North 12.7 mph - N/A   Overcast
10:55 PM 26.6 °F 18.2 °F 23.0 °F 86% 30.22 in 10.0 mi NNE 8.1 mph - N/A   Overcast
11:15 PM 26.6 °F 16.2 °F 23.0 °F 86% 30.22 in 10.0 mi NNE 11.5 mph - N/A   Overcast
11:35 PM 26.6 °F 15.7 °F 23.0 °F 86% 30.22 in 10.0 mi NNE 12.7 mph - N/A   Overcast
11:55 PM 26.6 °F 17.5 °F 23.0 °F 86% 30.23 in 10.0 mi NNE 9.2 mph - N/A   Overcast